Tracking 29511 objects as of 17-Sep-2024
HD Live streaming from Space Station
objects crossing your sky now

COSMOS 886 DEB

Track COSMOS 886 DEB now!
10-day predictions


NORAD ID: 9816
Int'l Code: 1976-126AC
Perigee: 504.0 km
Apogee: 1,410.8 km
Inclination: 65.8 °
Period: 104.1 minutes
Semi major axis: 7328 km
RCS: 0.0337 m2 (small)
Launch date: December 27, 1976
Source: Commonwealth of Independent States (former USSR) (CIS)
Launch site: TYURATAM MISSILE AND SPACE COMPLEX (TTMTR)

Note: This is SATELLITE DEBRIS
Your satellite tracking list
Your tracking list is empty




NASA's NSSDC Master Catalog

Two Line Element Set (TLE):
1 09816U 76126AC  24260.34424149  .00013161  00000-0  25787-2 0  9994
2 09816  65.7964 134.4131 0618683 347.8188  10.8471 13.83852064318431
Source of the keplerian elements: AFSPC